User: anonymous   Login
Location: Équennes
(49.7375°N, 1.9622°E)
Time: 23:05:31
(UTC+00:00)
Language:

RESURS DK-1 - Orbit

View from above orbital plane
View from above orbital plane
View from above satellite
View from above satellite

Ground track
Ground track

The orbit data is extracted from the following two-line orbital elements,

1 29228U 06021A   24151.30096849  .00003502  00000-0  23900-3 0  9991
2 29228  69.9342 107.6215 0003089 352.7559   7.3559 15.07168103989621
Epoch (UTC): 30 May 2024 07:13:23
Eccentricity: 0.0003089
inclination: 69.9342°
perigee height: 543 km
apogee height: 547 km
right ascension of ascending node: 107.6215°
argument of perigee: 352.7559°
revolutions per day: 15.07168103
mean anomaly at epoch: 7.3559°
orbit number at epoch: 98962

The dashed part of the orbit path shows where the satellite is in the earth's shadow,  

DLR